Location: Luxembourg
(49.6117°N, 6.1300°E)
Time: 13:14:38
(UTC+02:00)

Tiangong 2 - Pass Details

Date: 27 May 2019
Orbit: 376 x 389 km, 42.8° (Epoch: 20 June)

Event Time Altitude Azimuth Distance (km) Brightness Sun altitude
Rises 22:22:35 0° 259° (W) 2,238 5.4 -7.5°
Reaches altitude 10° 22:25:04 10° 239° (WSW) 1,384 4.0 -7.8°
Maximum altitude 22:27:16 18° 194° (SSW) 1,010 2.9 -8.0°
Enters shadow 22:29:16 11° 152° (SSE) 1,320 3.1 -8.2°
